User: anonymous   Login
Location: Caltech
(34.1382°N, 118.1253°W)
Time: 04:12:55
(UTC-07:00)
Language:

Cosmos 1939 Rocket - Orbit

View from above orbital plane
View from above orbital plane
View from above satellite
View from above satellite

Ground track
Ground track

The orbit data is extracted from the following two-line orbital elements,

1 19046U 88032B   18174.91780070 +.00000475 +00000-0 +39750-4 0  9998
2 19046 097.4816 214.9806 0039099 149.0586 211.2955 15.02451963628164
Epoch (UTC): 23 June 2018 22:01:37
Eccentricity: 0.0039099
inclination: 97.4816°
perigee height: 532 km
apogee height: 586 km
right ascension of ascending node: 214.9806°
argument of perigee: 149.0586°
revolutions per day: 15.02451963
mean anomaly at epoch: 211.2955°
orbit number at epoch: 62816

The dashed part of the orbit path shows where the satellite is in the earth's shadow,  

DLR